Voltar ao catálogo

STARLINK-36879

AtivoComunicaçõesSSO
NORAD 67982·PAYLOAD·🇺🇸 United States

Lançado Feb 25, 2026 de Vandenberg Space Force Base

Loading…

Próximas Passagens (próximas 24 horas)

TLE

AtualizadoSource: CelesTrak SupGP

Época: Sep 15, 2026, 03:47 UTC

1 67982C 26038X   26258.15812500 -.00058403  00000+0 -18131-2 0  2581
2 67982  97.2842 266.6376 0001500  94.7332 103.2263 15.33465341    19

Acompanhe STARLINK-36879 em tempo real com AllMySat

Download on the App Store